[TLELIST] Archives

 

Current TLEs

August 28th 2006 PDT

HST 1 20580U 90037B 06239.61863692 .00000384 00000-0 17034-4 0 6851 2 20580 028.4703 304.2208 0003864 218.5968 141.4348 15.00082175695835 ISS (ZARYA) 1 25544U 98067A 06239.95849418 +.00009973 +00000-0 +68497-4 0 05721 2 25544 051.6311 177.6764 0011039 270.8539 216.8308 15.75375652444483 CXO 1 25867U 99040B 06240.91666667 .00000000 00000-0 00000+0 0 9662 2 25867 060.0368 095.5103 5885397 289.2673 239.6443 00.37814555 1211 ____________________________________________________________________ These 2-Line ...Continue Reading

Current TLEs

August 27th 2006 PDT

HST 1 20580U 90037B 06238.55412174 .00000435 00000-0 21015-4 0 6848 2 20580 028.4704 311.1597 0003930 208.0836 151.9540 15.00081913695677 ISS (ZARYA) 1 25544U 98067A 06239.44703902 .00010427 00000-0 71439-4 0 5694 2 25544 051.6319 180.3092 0011082 268.9535 196.1431 15.75366761444408 CXO 1 25867U 99040B 06239.16666667 .00000000 00000-0 00000+0 0 9656 2 25867 060.0287 095.5780 5883864 289.2702 001.3646 00.37803662 1218 ____________________________________________________________________ These 2-Line ...Continue Reading

Current TLEs

August 26th 2006 PDT

HST 1 20580U 90037B 06236.62468767 .00000492 00000-0 25480-4 0 6835 2 20580 028.4705 323.7360 0004117 189.7606 170.2906 15.00081011695380 ISS (ZARYA) 1 25544U 98067A 06238.43115860 .00010140 00000-0 69661-4 0 5621 2 25544 051.6316 185.5386 0011106 264.7299 195.1301 15.75343448444240 CXO 1 25867U 99040B 06239.16666667 .00000000 00000-0 00000+0 0 9656 2 25867 060.0287 095.5780 5883864 289.2702 001.3646 00.37803662 1218 ____________________________________________________________________ These 2-Line ...Continue Reading

Current TLEs

August 25th 2006 PDT

HST 1 20580U 90037B 06236.62468767 .00000492 00000-0 25480-4 0 6835 2 20580 028.4705 323.7360 0004117 189.7606 170.2906 15.00081011695380 ISS (ZARYA) 1 25544U 98067A 06237.48054519 .00009662 00000-0 66642-4 0 5564 2 25544 051.6312 190.4304 0011015 260.8377 204.2636 15.75322906444096 CXO 1 25867U 99040B 06239.16666667 .00000000 00000-0 00000+0 0 9656 2 25867 060.0287 095.5780 5883864 289.2702 001.3646 00.37803662 1218 ____________________________________________________________________ These 2-Line ...Continue Reading

Current TLEs

August 24th 2006 PDT

HST 1 20580U 90037B 06235.62670437 +.00000559 +00000-0 +30786-4 0 06865 2 20580 028.4708 330.2404 0004099 179.1446 180.9147 15.00080562695238 ISS (ZARYA) 1 25544U 98067A 06236.46464317 .00084474 00000-0 54409-3 0 5484 2 25544 051.6340 195.6580 0011134 254.8737 205.0549 15.75356580443934 CXO 1 25867U 99040B 06236.50000000 .00000000 00000-0 00000+0 0 9643 2 25867 060.0283 095.6694 5878274 289.2767 358.3252 00.37799742 1210 ____________________________________________________________________ These 2-Line ...Continue Reading

Current TLEs

August 23rd 2006 PDT

HST 1 20580U 90037B 06233.63073635 .00000511 00000-0 27048-4 0 6811 2 20580 028.4700 343.2524 0004218 161.9963 198.0776 15.00078730694931 ISS (ZARYA) 1 25544U 98067A 06235.44889008 .00016691 00000-0 10581-3 0 5411 2 25544 051.6300 200.8852 0006709 226.5292 227.9823 15.76665818443773 CXO 1 25867U 99040B 06236.50000000 .00000000 00000-0 00000+0 0 9643 2 25867 060.0283 095.6694 5878274 289.2767 358.3252 00.37799742 1210 ____________________________________________________________________ These 2-Line ...Continue Reading

Current TLEs

August 22nd 2006 PDT

HST 1 20580U 90037B 06233.63073635 .00000511 00000-0 27048-4 0 6811 2 20580 028.4700 343.2524 0004218 161.9963 198.0776 15.00078730694931 ISS (ZARYA) 1 25544U 98067A 06234.11852756 .00014812 00000-0 94585-4 0 5357 2 25544 051.6298 207.7447 0006705 220.6818 237.6920 15.76614705443562 CXO 1 25867U 99040B 06233.87500000 .00000000 00000-0 00000+0 0 9634 2 25867 060.0409 095.7299 5869225 289.3311 000.9535 00.37789634 1217 ____________________________________________________________________ These 2-Line ...Continue Reading

Current TLEs

August 21st 2006 PDT

HST 1 20580U 90037B 06231.70129931 +.00000323 +00000-0 +12304-4 0 06986 2 20580 028.4687 355.8367 0003966 144.3903 215.6952 15.00076804694647 ISS (ZARYA) 1 25544U 98067A 06233.30184527 .00013126 00000-0 84407-4 0 5316 2 25544 051.6300 211.9574 0006907 217.3264 282.5952 15.76582899443434 CXO 1 25867U 99040B 06233.87500000 .00000000 00000-0 00000+0 0 9634 2 25867 060.0409 095.7299 5869225 289.3311 000.9535 00.37789634 1217 ____________________________________________________________________ These 2-Line ...Continue Reading

Current TLEs

August 20th 2006 PDT

HST 1 20580U 90037B 06230.70331331 .00000287 00000-0 94725-5 0 6790 2 20580 028.4687 002.3435 0003898 135.1272 224.9632 15.00076252694496 ISS (ZARYA) 1 25544U 98067A 06232.47844569 .00006040 00000-0 41148-4 0 5257 2 25544 051.6299 216.2012 0006901 212.0437 291.3544 15.76540810443302 CXO 1 25867U 99040B 06231.20833333 .00000000 00000-0 00000+0 0 9626 2 25867 060.0480 095.7433 5863092 289.4430 357.8723 00.37786002 1214 ____________________________________________________________________ These 2-Line ...Continue Reading

Current TLEs

August 19th 2006 PDT

HST 1 20580U 90037B 06229.63879405 .00000318 00000-0 11896-4 0 6780 2 20580 028.4685 009.2836 0003856 123.8483 236.2472 15.00076161694337 ISS (ZARYA) 1 25544U 98067A 06230.45246743 .00003156 00000-0 23489-4 0 5155 2 25544 051.6301 226.6450 0007142 204.2808 312.9009 15.76506889442987 CXO 1 25867U 99040B 06231.20833333 .00000000 00000-0 00000+0 0 9626 2 25867 060.0480 095.7433 5863092 289.4430 357.8723 00.37786002 1214 ____________________________________________________________________ These 2-Line ...Continue Reading
  • This mailing list is a public mailing list - anyone may join or leave, at any time.
  • This mailing list is announce-only.

International Space Station (ISS) / Hubble Space Telescope (HST) / Chandra X-Ray Observatory Orbital Data via EMAIL

Privacy Policy:

Private list